Погода в Мадауне

Россия / Магаданская область     60°36′22″N   150°41′41″E
темп.,
°C
ветер,
м/с
пор.,
м/с
влажн.,
%
обл.,
%
осадки,
мм/ч
давл.,
гПа
погр.,
м
14 апреля, ср
ср1423:00−26св229622 0.0 102510
02:00−27св229542 0.0 102411
05:00−27св229443 0.0 102412
08:00−20ссв228790 0.0 102054
11:00−13ссв3368100 0.0 1015280
14:00−10ссв3362100 0.0 1012529
17:00−10ссв3465100 0.0 1009655
20:00−12ссв3495100 0.1 1009113
15 апреля, чт
чт1523:00−13ссв3496100 0.6 1009129
02:00−14св3396100 0.8 1008112
05:00−15св2296100 1.4 100965
08:00−14св2292100 0.3 1009123
11:00−11всв2282100 0.4 1008476
14:00−9вюв2275100 0.2 1006600
17:00−8юв238093 0.4 1006584
20:00−13в119398 0.1 10089
16 апреля, пт
пт1623:00−15всв2198100 0.1 100910
02:00−15св1197100 0.1 100813
05:00−15в1199100 0.3 100919
08:00−11ююз1293100 0.6 1008185
11:00−9юз2282100 0.8 1009565
14:00−7ююз3375100 0.1 1009761
17:00−7ююз457987 0.3 1011841
20:00−11ююз339882 0.3 101434
17 апреля, сб
сб1723:00−15ю2299100 0.4 101712
02:00−14ююз2297100 0.1 101716
05:00−14ююз2195100 0.2 101714
08:00−12ююз2393100 0.1 1017237
11:00−9ююз3387100 0.1 1017504
14:00−8ююз3379100 0.1 1016763
17:00−8ююз4484100 0.1 1016537
20:00−13ю449998 0.1 101931
18 апреля, вс
вс1823:00−13ю4510099 0.1 1019112
02:00−13ю4599100 0.1 101888
05:00−12ю3499100 0.1 101858
08:00−10ююз4598100 0.1 1017170
11:00−7ююз5692100 0.1 1016434
14:00−6ююз5590100 0.1 1016531
17:00−5ю4591100 0.1 1017448
20:00−8ю349892 0.1 101946